Time,TemperatureF,DewpointF,PressureIn,WindDirection,WindDirectionDegrees,WindSpeedMPH,WindSpeedGustMPH,Humidity,HourlyPrecipIn,Conditions,Clouds,dailyrainin,SoftwareType,DateUTC
2013-05-01 00:01:00,35.0,32.0,-100.00,NNE,30,1.0,4.0,88,-99.99,,,-99.99,,2013-05-01 08:01:00,
2013-05-01 00:11:00,35.0,32.0,-100.00,NNE,30,1.0,4.0,88,-99.99,,,-99.99,,2013-05-01 08:11:00,
2013-05-01 00:21:00,35.0,32.0,-100.00,ENE,70,0.0,3.0,88,-99.99,,,-99.99,,2013-05-01 08:21:00,
2013-05-01 00:31:00,35.0,32.0,-100.00,ENE,70,0.0,3.0,88,-99.99,,,-99.99,,2013-05-01 08:31:00,
2013-05-01 00:42:00,35.0,32.0,-100.00,ENE,70,0.0,3.0,88,-99.99,,,-99.99,,2013-05-01 08:42:00,
2013-05-01 00:52:00,35.0,32.0,-100.00,NE,40,1.0,3.0,89,-99.99,,,-99.99,,2013-05-01 08:52:00,
2013-05-01 01:01:00,35.0,32.0,-100.00,NE,40,1.0,3.0,89,-99.99,,,-99.99,,2013-05-01 09:01:00,
2013-05-01 01:11:00,35.0,32.0,-100.00,NE,40,1.0,3.0,89,-99.99,,,-99.99,,2013-05-01 09:11:00,
2013-05-01 01:21:00,34.0,32.0,-100.00,NE,35,0.0,4.0,91,-99.99,,,-99.99,,2013-05-01 09:21:00,
2013-05-01 01:33:00,34.0,32.0,-100.00,NE,35,0.0,4.0,91,-99.99,,,-99.99,,2013-05-01 09:33:00,
2013-05-01 01:43:00,34.0,32.0,-100.00,NE,35,0.0,4.0,91,-99.99,,,-99.99,,2013-05-01 09:43:00,
2013-05-01 01:53:00,34.0,32.0,-100.00,North,355,0.0,3.0,93,-99.99,,,-99.99,,2013-05-01 09:53:00,
2013-05-01 02:02:00,34.0,32.0,-100.00,North,355,0.0,3.0,93,-99.99,,,-99.99,,2013-05-01 10:02:00,
2013-05-01 02:12:00,34.0,32.0,-100.00,North,355,0.0,3.0,93,-99.99,,,-99.99,,2013-05-01 10:12:00,
2013-05-01 02:22:00,34.0,32.0,-100.00,NNE,30,1.0,5.0,93,-99.99,,,-99.99,,2013-05-01 10:22:00,
2013-05-01 02:32:00,34.0,32.0,-100.00,NNE,30,1.0,5.0,93,-99.99,,,-99.99,,2013-05-01 10:32:00,
2013-05-01 02:42:00,34.0,32.0,-100.00,NNE,30,1.0,5.0,93,-99.99,,,-99.99,,2013-05-01 10:42:00,
2013-05-01 02:52:00,34.0,33.0,-100.00,NE,35,2.0,5.0,93,-99.99,,,-99.99,,2013-05-01 10:52:00,
2013-05-01 03:02:00,34.0,33.0,-100.00,NE,35,2.0,5.0,93,-99.99,,,-99.99,,2013-05-01 11:02:00,
2013-05-01 03:11:00,34.0,33.0,-100.00,NE,35,2.0,5.0,93,-99.99,,,-99.99,,2013-05-01 11:11:00,
2013-05-01 03:22:00,35.0,33.0,-100.00,North,0,2.0,6.0,93,-99.99,,,-99.99,,2013-05-01 11:22:00,
2013-05-01 03:32:00,35.0,33.0,-100.00,North,0,2.0,6.0,93,-99.99,,,-99.99,,2013-05-01 11:32:00,
2013-05-01 03:42:00,35.0,33.0,-100.00,North,0,2.0,6.0,93,-99.99,,,-99.99,,2013-05-01 11:42:00,
2013-05-01 03:52:00,34.0,32.0,-100.00,North,0,3.0,7.0,94,-99.99,,,-99.99,,2013-05-01 11:52:00,
2013-05-01 04:01:00,34.0,32.0,-100.00,North,0,3.0,7.0,94,-99.99,,,-99.99,,2013-05-01 12:01:00,
2013-05-01 04:11:00,34.0,32.0,-100.00,North,0,3.0,7.0,94,-99.99,,,-99.99,,2013-05-01 12:11:00,
2013-05-01 04:21:00,34.0,32.0,-100.00,ENE,75,2.0,6.0,95,-99.99,,,-99.99,,2013-05-01 12:21:00,
2013-05-01 04:31:00,34.0,32.0,-100.00,ENE,75,2.0,6.0,95,-99.99,,,-99.99,,2013-05-01 12:31:00,
2013-05-01 04:42:00,34.0,32.0,-100.00,ENE,75,2.0,6.0,95,-99.99,,,-99.99,,2013-05-01 12:42:00,
2013-05-01 04:52:00,33.0,32.0,-100.00,NE,45,1.0,7.0,95,-99.99,,,-99.99,,2013-05-01 12:52:00,
2013-05-01 05:01:00,33.0,32.0,-100.00,NE,45,1.0,7.0,95,-99.99,,,-99.99,,2013-05-01 13:01:00,
2013-05-01 05:11:00,33.0,32.0,-100.00,NE,45,1.0,7.0,95,-99.99,,,-99.99,,2013-05-01 13:11:00,
2013-05-01 05:21:00,33.0,32.0,-100.00,North,5,1.0,7.0,96,-99.99,,,-99.99,,2013-05-01 13:21:00,
2013-05-01 05:32:00,33.0,32.0,-100.00,North,5,1.0,7.0,96,-99.99,,,-99.99,,2013-05-01 13:32:00,
2013-05-01 05:42:00,33.0,32.0,-100.00,North,5,1.0,7.0,96,-99.99,,,-99.99,,2013-05-01 13:42:00,
2013-05-01 05:52:00,34.0,33.0,-100.00,NNW,345,7.0,11.0,96,-99.99,,,-99.99,,2013-05-01 13:52:00,
2013-05-01 06:01:00,34.0,33.0,-100.00,NNW,345,7.0,11.0,96,-99.99,,,-99.99,,2013-05-01 14:01:00,
2013-05-01 06:11:00,34.0,33.0,-100.00,NNW,345,7.0,11.0,96,-99.99,,,-99.99,,2013-05-01 14:11:00,
2013-05-01 06:21:00,33.0,33.0,-100.00,East,85,1.0,7.0,96,-99.99,,,-99.99,,2013-05-01 14:21:00,
2013-05-01 06:32:00,33.0,33.0,-100.00,East,85,1.0,7.0,96,-99.99,,,-99.99,,2013-05-01 14:32:00,
2013-05-01 06:42:00,33.0,33.0,-100.00,East,85,1.0,7.0,96,-99.99,,,-99.99,,2013-05-01 14:42:00,
2013-05-01 06:52:00,33.0,32.0,-100.00,East,90,3.0,5.0,96,-99.99,,,-99.99,,2013-05-01 14:52:00,
2013-05-01 07:01:00,33.0,32.0,-100.00,East,90,3.0,5.0,96,-99.99,,,-99.99,,2013-05-01 15:01:00,
2013-05-01 07:11:00,33.0,32.0,-100.00,East,90,3.0,5.0,96,-99.99,,,-99.99,,2013-05-01 15:11:00,
2013-05-01 07:21:00,33.0,32.0,-100.00,East,95,4.0,8.0,96,-99.99,,,-99.99,,2013-05-01 15:21:00,
2013-05-01 07:33:00,33.0,32.0,-100.00,East,95,4.0,8.0,96,-99.99,,,-99.99,,2013-05-01 15:33:00,
2013-05-01 07:43:00,33.0,32.0,-100.00,East,95,4.0,8.0,96,-99.99,,,-99.99,,2013-05-01 15:43:00,
2013-05-01 07:53:00,32.0,31.0,-100.00,NE,35,1.0,6.0,95,-99.99,,,-99.99,,2013-05-01 15:53:00,
2013-05-01 08:02:00,32.0,31.0,-100.00,NE,35,1.0,6.0,95,-99.99,,,-99.99,,2013-05-01 16:02:00,
2013-05-01 08:12:00,32.0,31.0,-100.00,NE,35,1.0,6.0,95,-99.99,,,-99.99,,2013-05-01 16:12:00,
2013-05-01 08:22:00,33.0,30.0,-100.00,NE,55,2.0,7.0,90,-99.99,,,-99.99,,2013-05-01 16:22:00,
2013-05-01 08:31:00,33.0,30.0,-100.00,NE,55,2.0,7.0,90,-99.99,,,-99.99,,2013-05-01 16:31:00,
2013-05-01 08:42:00,33.0,30.0,-100.00,NE,55,2.0,7.0,90,-99.99,,,-99.99,,2013-05-01 16:42:00,
2013-05-01 08:53:00,33.0,30.0,-100.00,NE,45,4.0,6.0,88,-99.99,,,-99.99,,2013-05-01 16:53:00,
2013-05-01 09:02:00,33.0,30.0,-100.00,NE,45,4.0,6.0,88,-99.99,,,-99.99,,2013-05-01 17:02:00,
2013-05-01 09:12:00,33.0,30.0,-100.00,NE,45,4.0,6.0,88,-99.99,,,-99.99,,2013-05-01 17:12:00,
2013-05-01 09:21:00,35.0,30.0,-100.00,NNE,25,2.0,12.0,82,-99.99,,,-99.99,,2013-05-01 17:21:00,
2013-05-01 09:32:00,35.0,30.0,-100.00,NNE,25,2.0,12.0,82,-99.99,,,-99.99,,2013-05-01 17:32:00,
2013-05-01 09:42:00,35.0,30.0,-100.00,NNE,25,2.0,12.0,82,-99.99,,,-99.99,,2013-05-01 17:42:00,
2013-05-01 09:52:00,36.0,31.0,-100.00,North,0,7.0,15.0,80,-99.99,,,-99.99,,2013-05-01 17:52:00,
2013-05-01 10:01:00,36.0,31.0,-100.00,North,0,7.0,15.0,80,-99.99,,,-99.99,,2013-05-01 18:01:00,
2013-05-01 10:11:00,36.0,31.0,-100.00,North,0,7.0,15.0,80,-99.99,,,-99.99,,2013-05-01 18:11:00,
2013-05-01 10:22:00,38.0,31.0,-100.00,North,0,6.0,14.0,77,-99.99,,,-99.99,,2013-05-01 18:22:00,
2013-05-01 10:32:00,38.0,31.0,-100.00,North,0,6.0,14.0,77,-99.99,,,-99.99,,2013-05-01 18:32:00,
2013-05-01 10:42:00,38.0,31.0,-100.00,North,0,6.0,14.0,77,-99.99,,,-99.99,,2013-05-01 18:42:00,
2013-05-01 10:52:00,37.0,32.0,-100.00,North,0,6.0,14.0,83,-99.99,,,-99.99,,2013-05-01 18:52:00,
2013-05-01 11:01:00,37.0,32.0,-100.00,North,0,6.0,14.0,83,-99.99,,,-99.99,,2013-05-01 19:01:00,
2013-05-01 11:11:00,37.0,32.0,-100.00,North,0,6.0,14.0,83,-99.99,,,-99.99,,2013-05-01 19:11:00,
2013-05-01 11:22:00,37.0,32.0,-100.00,North,0,9.0,18.0,83,-99.99,,,-99.99,,2013-05-01 19:22:00,
2013-05-01 11:32:00,37.0,32.0,-100.00,North,0,9.0,18.0,83,-99.99,,,-99.99,,2013-05-01 19:32:00,
2013-05-01 11:43:00,37.0,32.0,-100.00,North,0,9.0,18.0,83,-99.99,,,-99.99,,2013-05-01 19:43:00,
2013-05-01 11:52:00,38.0,32.0,-100.00,NNW,340,8.0,18.0,80,-99.99,,,-99.99,,2013-05-01 19:52:00,
2013-05-01 12:01:00,38.0,32.0,-100.00,NNW,340,8.0,18.0,80,-99.99,,,-99.99,,2013-05-01 20:01:00,
2013-05-01 12:11:00,38.0,32.0,-100.00,NNW,340,8.0,18.0,80,-99.99,,,-99.99,,2013-05-01 20:11:00,
2013-05-01 12:21:00,38.0,32.0,-100.00,NNW,345,8.0,17.0,79,-99.99,,,-99.99,,2013-05-01 20:21:00,
2013-05-01 12:31:00,38.0,32.0,-100.00,NNW,345,8.0,17.0,79,-99.99,,,-99.99,,2013-05-01 20:31:00,
2013-05-01 12:42:00,38.0,32.0,-100.00,NNW,345,8.0,17.0,79,-99.99,,,-99.99,,2013-05-01 20:42:00,
2013-05-01 12:52:00,38.0,32.0,-100.00,NNW,335,9.0,21.0,80,-99.99,,,-99.99,,2013-05-01 20:52:00,
2013-05-01 13:01:00,38.0,32.0,-100.00,NNW,335,9.0,21.0,80,-99.99,,,-99.99,,2013-05-01 21:01:00,
2013-05-01 13:11:00,38.0,32.0,-100.00,NNW,335,9.0,21.0,80,-99.99,,,-99.99,,2013-05-01 21:11:00,
2013-05-01 13:21:00,38.0,32.0,-100.00,NNW,345,10.0,18.0,80,-99.99,,,-99.99,,2013-05-01 21:21:00,
2013-05-01 13:32:00,38.0,32.0,-100.00,NNW,345,10.0,18.0,80,-99.99,,,-99.99,,2013-05-01 21:32:00,
2013-05-01 13:43:00,38.0,32.0,-100.00,NNW,345,10.0,18.0,80,-99.99,,,-99.99,,2013-05-01 21:43:00,
2013-05-01 13:53:00,38.0,32.0,-100.00,North,350,9.0,21.0,79,-99.99,,,-99.99,,2013-05-01 21:53:00,
2013-05-01 14:02:00,38.0,32.0,-100.00,North,350,9.0,21.0,79,-99.99,,,-99.99,,2013-05-01 22:02:00,
2013-05-01 14:12:00,38.0,32.0,-100.00,North,350,9.0,21.0,79,-99.99,,,-99.99,,2013-05-01 22:12:00,
2013-05-01 14:22:00,38.0,32.0,-100.00,NW,310,6.0,17.0,79,-99.99,,,-99.99,,2013-05-01 22:22:00,
2013-05-01 14:32:00,38.0,32.0,-100.00,NW,310,6.0,17.0,79,-99.99,,,-99.99,,2013-05-01 22:32:00,
2013-05-01 14:42:00,38.0,32.0,-100.00,NW,310,6.0,17.0,79,-99.99,,,-99.99,,2013-05-01 22:42:00,
2013-05-01 14:53:00,38.0,32.0,-100.00,NNW,335,7.0,19.0,78,-99.99,,,-99.99,,2013-05-01 22:53:00,
2013-05-01 15:01:00,38.0,32.0,-100.00,NNW,335,7.0,19.0,78,-99.99,,,-99.99,,2013-05-01 23:01:00,
2013-05-01 15:11:00,38.0,32.0,-100.00,NNW,335,7.0,19.0,78,-99.99,,,-99.99,,2013-05-01 23:11:00,
2013-05-01 15:21:00,39.0,32.0,-100.00,NNW,330,7.0,15.0,76,-99.99,,,-99.99,,2013-05-01 23:21:00,
2013-05-01 15:32:00,39.0,32.0,-100.00,NNW,330,7.0,15.0,76,-99.99,,,-99.99,,2013-05-01 23:32:00,
2013-05-01 15:42:00,39.0,32.0,-100.00,NNW,330,7.0,15.0,76,-99.99,,,-99.99,,2013-05-01 23:42:00,
2013-05-01 15:52:00,40.0,32.0,-100.00,NW,320,7.0,16.0,71,-99.99,,,-99.99,,2013-05-01 23:52:00,
2013-05-01 16:01:00,40.0,32.0,-100.00,NW,320,7.0,16.0,71,-99.99,,,-99.99,,2013-05-02 00:01:00,
2013-05-01 16:11:00,40.0,32.0,-100.00,NW,320,7.0,16.0,71,-99.99,,,-99.99,,2013-05-02 00:11:00,
2013-05-01 16:21:00,40.0,32.0,-100.00,NW,310,5.0,13.0,72,-99.99,,,-99.99,,2013-05-02 00:21:00,
2013-05-01 16:31:00,40.0,32.0,-100.00,NW,310,5.0,13.0,72,-99.99,,,-99.99,,2013-05-02 00:31:00,
2013-05-01 16:42:00,40.0,32.0,-100.00,NW,310,5.0,13.0,72,-99.99,,,-99.99,,2013-05-02 00:42:00,
2013-05-01 16:52:00,39.0,32.0,-100.00,North,0,6.0,15.0,73,-99.99,,,-99.99,,2013-05-02 00:52:00,
2013-05-01 17:01:00,39.0,32.0,-100.00,North,0,6.0,15.0,73,-99.99,,,-99.99,,2013-05-02 01:01:00,
2013-05-01 17:11:00,39.0,32.0,-100.00,North,0,6.0,15.0,73,-99.99,,,-99.99,,2013-05-02 01:11:00,
2013-05-01 17:21:00,41.0,32.0,-100.00,NW,325,5.0,13.0,70,-99.99,,,-99.99,,2013-05-02 01:21:00,
2013-05-01 17:32:00,41.0,32.0,-100.00,NW,325,5.0,13.0,70,-99.99,,,-99.99,,2013-05-02 01:32:00,
2013-05-01 17:42:00,41.0,32.0,-100.00,NW,325,5.0,13.0,70,-99.99,,,-99.99,,2013-05-02 01:42:00,
2013-05-01 17:52:00,41.0,32.0,-100.00,NNW,345,4.0,12.0,69,-99.99,,,-99.99,,2013-05-02 01:52:00,
2013-05-01 18:01:00,41.0,32.0,-100.00,NNW,345,4.0,12.0,69,-99.99,,,-99.99,,2013-05-02 02:01:00,
2013-05-01 18:11:00,41.0,32.0,-100.00,NNW,345,4.0,12.0,69,-99.99,,,-99.99,,2013-05-02 02:11:00,
2013-05-01 18:21:00,40.0,31.0,-100.00,NW,310,6.0,12.0,69,-99.99,,,-99.99,,2013-05-02 02:21:00,
2013-05-01 18:31:00,40.0,31.0,-100.00,NW,310,6.0,12.0,69,-99.99,,,-99.99,,2013-05-02 02:31:00,
2013-05-01 18:42:00,40.0,31.0,-100.00,NW,310,6.0,12.0,69,-99.99,,,-99.99,,2013-05-02 02:42:00,
2013-05-01 18:51:00,40.0,31.0,-100.00,NW,310,6.0,12.0,69,-99.99,,,-99.99,,2013-05-02 02:51:00,
2013-05-01 19:01:00,40.0,31.0,-100.00,North,350,4.0,8.0,69,-99.99,,,-99.99,,2013-05-02 03:01:00,
2013-05-01 19:11:00,40.0,31.0,-100.00,North,350,4.0,8.0,69,-99.99,,,-99.99,,2013-05-02 03:11:00,
2013-05-01 19:22:00,39.0,31.0,-100.00,NNW,345,2.0,7.0,70,-99.99,,,-99.99,,2013-05-02 03:22:00,
2013-05-01 19:32:00,39.0,31.0,-100.00,NNW,345,2.0,7.0,70,-99.99,,,-99.99,,2013-05-02 03:32:00,
2013-05-01 19:43:00,39.0,31.0,-100.00,NNW,345,2.0,7.0,70,-99.99,,,-99.99,,2013-05-02 03:43:00,
2013-05-01 19:53:00,40.0,31.0,-100.00,North,0,1.0,5.0,70,-99.99,,,-99.99,,2013-05-02 03:53:00,
2013-05-01 20:02:00,40.0,31.0,-100.00,North,0,1.0,5.0,70,-99.99,,,-99.99,,2013-05-02 04:02:00,
2013-05-01 20:12:00,40.0,31.0,-100.00,North,0,1.0,5.0,70,-99.99,,,-99.99,,2013-05-02 04:12:00,
2013-05-01 20:22:00,40.0,30.0,-100.00,West,275,1.0,4.0,68,-99.99,,,-99.99,,2013-05-02 04:22:00,
2013-05-01 20:33:00,40.0,30.0,-100.00,West,275,1.0,4.0,68,-99.99,,,-99.99,,2013-05-02 04:33:00,
2013-05-01 20:43:00,40.0,30.0,-100.00,West,275,1.0,4.0,68,-99.99,,,-99.99,,2013-05-02 04:43:00,
2013-05-01 20:52:00,40.0,30.0,-100.00,NNE,25,1.0,2.0,67,-99.99,,,-99.99,,2013-05-02 04:52:00,
2013-05-01 21:02:00,40.0,30.0,-100.00,NNE,25,1.0,2.0,67,-99.99,,,-99.99,,2013-05-02 05:02:00,
2013-05-01 21:11:00,40.0,30.0,-100.00,NNE,25,1.0,2.0,67,-99.99,,,-99.99,,2013-05-02 05:11:00,
2013-05-01 21:22:00,40.0,29.0,-100.00,WSW,250,0.0,1.0,66,-99.99,,,-99.99,,2013-05-02 05:22:00,
2013-05-01 21:32:00,40.0,29.0,-100.00,WSW,250,0.0,1.0,66,-99.99,,,-99.99,,2013-05-02 05:32:00,
2013-05-01 21:42:00,40.0,29.0,-100.00,WSW,250,0.0,1.0,66,-99.99,,,-99.99,,2013-05-02 05:42:00,
2013-05-01 21:52:00,39.0,30.0,-100.00,ENE,75,0.0,1.0,69,-99.99,,,-99.99,,2013-05-02 05:52:00,
2013-05-01 22:01:00,39.0,30.0,-100.00,ENE,75,0.0,1.0,69,-99.99,,,-99.99,,2013-05-02 06:01:00,
2013-05-01 22:12:00,39.0,30.0,-100.00,ENE,75,0.0,1.0,69,-99.99,,,-99.99,,2013-05-02 06:12:00,
2013-05-01 22:21:00,38.0,29.0,-100.00,SSE,160,0.0,0.0,71,-99.99,,,-99.99,,2013-05-02 06:21:00,
2013-05-01 22:32:00,38.0,29.0,-100.00,SSE,160,0.0,0.0,71,-99.99,,,-99.99,,2013-05-02 06:32:00,
2013-05-01 22:42:00,38.0,29.0,-100.00,SSE,160,0.0,0.0,71,-99.99,,,-99.99,,2013-05-02 06:42:00,
2013-05-01 22:52:00,36.0,29.0,-100.00,ESE,115,1.0,2.0,74,-99.99,,,-99.99,,2013-05-02 06:52:00,
2013-05-01 23:01:00,36.0,29.0,-100.00,ESE,115,1.0,2.0,74,-99.99,,,-99.99,,2013-05-02 07:01:00,
2013-05-01 23:11:00,36.0,29.0,-100.00,ESE,115,1.0,2.0,74,-99.99,,,-99.99,,2013-05-02 07:11:00,
2013-05-01 23:21:00,35.0,29.0,-100.00,East,100,2.0,2.0,79,-99.99,,,-99.99,,2013-05-02 07:21:00,
2013-05-01 23:31:00,35.0,29.0,-100.00,East,100,2.0,2.0,79,-99.99,,,-99.99,,2013-05-02 07:31:00,
2013-05-01 23:42:00,35.0,29.0,-100.00,East,100,2.0,2.0,79,-99.99,,,-99.99,,2013-05-02 07:42:00,
2013-05-01 23:52:00,34.0,29.0,-100.00,ESE,105,2.0,3.0,82,-99.99,,,-99.99,,2013-05-02 07:52:00,